カタログに戻る

STARLINK-31808

運用中通信VLEO
NORAD 59751·PAYLOAD·🇺🇸 United States

打ち上げ May 13, 2024 から Cape Canaveral Space Force Station

Loading…

次のパス (今後24時間)

TLE

最新Source: CelesTrak SupGP

元期: Sep 14, 2026, 22:14 UTC

1 59751C 24090X   26257.92687500 -.00014987  00000+0 -54280-3 0  2570
2 59751  42.9996 194.3745 0001130 256.3575 197.1552 15.27587138    17

AllMySatでSTARLINK-31808をリアルタイム追跡

Download on the App Store